Location: ??
(35.5052°N, 139.7262°E)
Time: 03:42:53
(UTC+00:00)

Cosmos 1802 Rocket - Pass Details

Date: 20 June 2021
Orbit: 955 x 1010 km, 82.9° (Epoch: 26 July)

Event Time Altitude Azimuth Distance (km) Brightness Sun altitude
Rises 12:06:05 0° 354° (N) 3,690 8.0 -20.4°
Reaches altitude 10° 12:08:36 10° 354° (N) 2,747 7.2 -20.7°
Maximum altitude 12:14:55 87° 83° (E) 1,001 4.0 -21.5°
Enters shadow 12:17:42 37° 172° (S) 1,507 4.5 -21.8°
